Regional Weather Roundup
Issued by NWS Columbia, SC

Home | Current Version | Previous Version | Text Only | Print | Product List | Glossary On
Versions: 1 2 3 4 5 6 7 8 9 10 11 12 13 14 15 16 17 18 19 20 21 22 23 24 25 26 27 28
000
ASUS42 KCAE 211310
RWRCAE
REGIONAL WEATHER ROUNDUP
NATIONAL WEATHER SERVICE COLUMBIA SC
800 AM EST WED FEB 21 2018

NOTE: "FAIR" INDICATES FEW OR NO CLOUDS BELOW 12,000 FEET WITH NO
SIGNIFICANT WEATHER AND/OR OBSTRUCTIONS TO VISIBILITY.

NOT ALL STATIONS ARE QUALITY CONTROLLED BY THE NATIONAL
WEATHER SERVICE. USE DATA WITH CAUTION...ESPECIALLY
DEWPOINT OBSERVATIONS.

SCZ001>056-GAZ040-063>065-077-211400-
...UPSTATE SOUTH CAROLINA...

CITY           SKY/WX    TMP DP  RH WIND       PRES   REMARKS
ANDERSON       CLOUDY    66  64  93 S10       30.42S
LIBERTY        CLOUDY    65  65 100 S8        30.42R
CLEMSON        CLOUDY    64  63  96 S5        30.43R
GREENVILLE     CLOUDY    67  65  93 S8        30.44R
GREENWOOD      FAIR      66  65  96 S8        30.44S
GREER          CLOUDY    66  65  96 S10       30.44R
ROCK HILL      CLOUDY    67  65  93 S6        30.45R
CHESTER        PTSUNNY   64  64 100 S6        30.46R FOG
LAURENS        CLOUDY    66  64  94 S6        30.44R


...CENTRAL SOUTH CAROLINA...

CITY           SKY/WX    TMP DP  RH WIND       PRES   REMARKS
COLUMBIA APT   CLOUDY    70  67  90 S6        30.45R
COLUMBIA OWENS CLOUDY    66  65  96 CALM      30.47R
MCENTIRE ANGB  FOG       64  64 100 SE3       30.47R VSB 1/4
ORANGEBURG     CLOUDY    63  62  97 CALM      30.47R FOG
SUMTER SHAW    FOG       64  64 100 CALM      30.45R VSB 1/4
NEWBERRY       PTSUNNY   66  64  94 S3        30.47R
AIKEN          CLOUDY    64  64 100 SE6       30.48R
BARNWELL         N/A     66  68 100 CALM      30.45S
MANNING        FOG       59  59 100 MISG      30.47R VSB 1/2
CAMDEN         FOG       64  64 100 CALM      30.48R VSB<1/4
LANCASTER      PTSUNNY   66  66 100 S3        30.46S
WINNSBORO      PTSUNNY   64  64 100 S7        30.46R


...EASTERN AND COASTAL SOUTH CAROLINA...

CITY           SKY/WX    TMP DP  RH WIND       PRES   REMARKS
MYRTLE BEACH   FOG       62  62 100 CALM      30.49R VSB 1/4
N MYRTLE BCH   FAIR      64  64 100 CALM      30.48R FOG
CONWAY         FOG       59  59 100 CALM      30.48R VSB 1/4
MARION         FOG       59  59 100 CALM      30.48R VSB<1/4
HARTSVILLE     FOG       63  63 100 S3        30.47R VSB 1/4
FLORENCE       FOG       62  62 100 CALM      30.48R VSB<1/4
DARLINGTON     FOG       64  64 100 S5        30.48R VSB 3/4
CHARLESTON APT FAIR      67  66  97 CALM      30.46R FOG
MOUNT PLEASANT FAIR      61  61 100 CALM      30.47R FOG
WALTERBORO     PTSUNNY   61  61 100 CALM      30.47R
BEAUFORT       FAIR      67  67 100 CALM      30.45


...EASTERN GEORGIA...

CITY           SKY/WX    TMP DP  RH WIND       PRES   REMARKS
AUGUSTA BUSH F CLOUDY    68  67  96 SE6       30.43R
AUGUSTA DANIEL CLOUDY    68  66  93 SE6       30.44R
THOMSON        CLOUDY    67  65  95 SW3       30.48R
WASHINGTON     FAIR      64  63  94 SE3       30.43R
CLAXTON        CLOUDY    69  68  97 CALM      30.44R FOG
SYLVANIA       CLOUDY    67  67 100 CALM      30.45R FOG
STATESBORO     CLOUDY    68  32  26 CALM      30.44R HAZE
SAVANNAH       LGT RAIN  66  66 100 CALM      30.44S


...SOUTHERN NORTH CAROLINA...

CITY           SKY/WX    TMP DP  RH WIND       PRES   REMARKS
CHARLOTTE      PTSUNNY   66  65  96 S7        30.45S
MONROE         CLOUDY    67  65  93 S7        30.45R
WADESBORO      CLOUDY    66  64  92 CALM      30.47R FOG
ROCKINGHAM     FOG       64  64 100 S5        30.47R VSB 1/2
RUTHERFORDTON  CLOUDY    63  63 100 S9        30.44R FOG
ASHEVILLE      CLOUDY    62  61  96 SE3       30.43S

$$




USA.gov is the U.S. government's official web portal to all federal, state and local government web resources and services.